Temperature
20 18 19 19 19 21 20 20 19 19 19 18 17 17 17 17 17 17 17 17 17 17 17 17 17 18 18 17 17 17 17 17 16 16 16 16 15 15 15 15 15 15 15 14
19 19 20 20 20 20 20 20 19 19 19 18 17 17 17 17 17 17 17 17 17 17 17 17 17 17 17 17 17 17 17 16 16 16 16 15 15 15 15 15 15 15 15 14
21 21 21 21 21 21 20 20 19 19 19 18 18 17 17 17 17 17 17 17 17 17 17 17 17 17 17 17 16 16 16 16 16 15 15 15 15 15 15 14 14 14 14 14
20 21 22 21 21 21 20 21 20 19 18 17 18 16 17 16 16 16 16 16 16 17 17 17 17 16 16 16 16 16 16 15 15 15 15 15 14 14 14 14 14 14 14 14
21 22 22 22 22 21 21 20 19 18 17 16 16 16 16 16 16 15 15 16 16 16 17 17 16 16 16 16 15 15 15 15 15 15 15 14 14 14 14 14 14 14 14 14
21 21 22 22 22 21 20 19 17 15 15 16 16 16 16 15 16 16 15 16 16 16 16 16 16 16 16 15 15 15 15 15 14 14 14 14 14 14 13 13 13 13 13 13
21 21 21 22 21 20 19 17 17 17 16 16 16 16 15 16 16 16 15 16 16 16 16 16 16 15 15 15 15 15 14 14 14 14 14 14 14 13 13 13 13 13 13 13
20 20 21 21 21 20 19 18 17 17 16 15 16 16 15 16 16 16 16 16 16 16 15 15 15 15 15 15 15 14 14 14 14 14 14 14 13 13 13 13 13 13 13 13
19 20 21 21 20 20 19 16 16 15 15 15 15 16 16 16 16 15 15 15 15 15 15 15 15 15 15 15 14 14 14 14 14 14 13 13 13 13 13 13 13 13 13 12
19 19 20 20 20 19 18 16 14 15 15 16 16 16 15 15 15 14 14 14 15 15 15 15 15 15 15 15 14 14 14 14 14 13 13 13 13 13 13 13 13 12 12 12
18 18 19 19 19 19 18 17 14 13 14 15 15 15 15 15 14 14 14 15 15 15 15 15 15 15 15 15 14 14 14 14 14 14 13 13 13 13 13 13 12 12 12 12
16 15 17 18 19 18 18 17 15 16 15 13 14 14 15 14 14 14 14 15 15 15 15 15 15 15 15 14 14 14 14 14 13 13 13 13 13 13 13 13 12 12 12 12
16 15 16 17 18 18 18 17 15 13 13 13 14 15 15 14 14 14 14 15 15 15 15 15 15 15 14 14 14 14 14 14 13 13 13 13 13 13 13 12 12 12 12 12
16 15 16 17 17 17 18 17 15 14 14 14 14 15 15 14 13 14 14 14 15 15 15 15 14 14 14 14 14 14 14 13 13 13 13 13 13 12 12 12 12 12 12 11
16 16 16 16 17 17 17 17 17 16 15 15 15 14 14 14 13 14 14 14 14 14 14 14 14 14 14 14 14 14 13 13 13 13 13 13 13 12 12 12 12 12 12 11
14 16 16 17 17 17 17 17 17 16 15 15 15 14 14 14 14 14 14 14 14 14 14 14 14 14 14 14 14 13 13 13 13 13 13 13 12 12 12 12 12 12 12 11
13 15 15 15 16 17 17 16 16 16 15 15 15 14 13 13 13 13 14 14 14 14 14 14 14 14 14 14 14 13 13 13 13 13 13 13 12 12 12 12 12 12 12 11
13 13 12 14 16 17 16 16 16 15 15 14 14 13 13 13 14 14 15 15 14 15 14 14 14 14 14 13 13 13 13 13 13 13 13 13 12 12 12 12 12 12 11 11
13 13 12 13 15 15 16 16 15 15 15 14 14 13 13 14 13 14 15 15 15 15 14 14 14 14 14 14 13 13 13 13 13 13 13 13 12 12 12 12 12 12 11 11
12 12 12 13 15 15 16 16 16 15 15 15 14 13 13 13 12 13 14 14 14 14 14 14 14 14 14 13 13 13 13 13 13 13 13 13 13 12 12 12 12 11 11 11
14 13 13 13 14 14 15 16 16 16 15 15 15 14 14 13 13 14 14 14 14 14 14 14 14 14 14 13 13 13 13 13 13 13 13 13 13 12 12 12 12 11 11 11
14 13 13 12 14 15 15 15 15 14 15 15 15 15 15 15 14 14 14 14 14 14 14 14 14 14 14 13 13 13 13 13 13 13 13 13 13 12 12 12 12 11 11 11
12 13 12 12 13 14 15 15 16 16 16 16 16 15 15 15 14 14 14 14 14 14 14 14 13 14 14 13 13 13 13 13 13 13 13 13 13 12 12 12 12 12 11 11
12 12 11 12 13 14 15 16 16 16 16 16 16 15 15 15 14 14 14 14 14 14 14 13 13 13 13 13 13 13 13 13 13 13 13 12 12 12 12 12 12 12 11 11
12 12 11 12 12 13 15 15 16 16 16 15 15 15 15 14 14 14 14 14 14 14 13 13 13 13 13 13 13 13 13 13 13 13 12 12 12 12 12 12 12 12 11 11
11 11 12 12 13 12 14 15 15 15 15 15 15 14 14 14 14 14 14 14 13 13 13 13 13 13 13 13 13 13 13 12 12 12 12 12 12 12 12 11 12 12 11 11
Wind_Speed
3 4 2 7 7 5 3 3 2 2 1 4 4 3 1 2 2 2 3 3 3 4 4 4 3 3 1 0 1 2 2 2 2 1 1 1 1 2 2 2 2 3 3 3
4 3 7 4 3 3 3 3 2 1 2 4 4 2 2 2 1 1 2 3 3 4 5 6 5 4 2 1 0 1 1 2 2 2 2 2 1 2 2 2 2 2 3 4
4 5 1 2 2 3 3 4 4 4 3 4 3 3 3 3 3 4 4 2 3 4 5 5 5 5 3 1 1 2 1 2 2 2 1 0 0 0 1 1 2 2 3 3
3 4 0 1 1 3 2 3 5 6 4 0 2 1 3 3 4 5 5 4 4 5 4 5 5 4 4 3 2 2 2 2 3 3 2 2 2 2 2 2 2 2 2 2
2 1 1 1 1 3 2 2 4 4 4 3 3 2 5 2 3 5 5 5 5 5 5 5 5 5 4 3 2 2 2 2 2 2 3 2 2 2 2 1 1 2 2 2
3 2 0 1 1 3 4 6 6 6 5 2 2 2 4 3 4 5 5 5 5 5 4 4 4 4 4 4 3 2 1 2 2 1 1 2 3 2 2 1 1 2 2 2
5 4 4 1 3 4 6 6 4 5 4 3 2 1 5 4 4 3 5 5 5 4 3 4 5 5 5 4 4 3 1 2 2 1 0 1 2 2 3 2 2 2 2 2
2 4 4 3 2 2 2 6 6 3 3 3 2 2 5 3 3 2 3 4 4 5 5 4 4 4 4 4 3 2 2 2 2 1 1 1 1 2 2 2 3 3 3 3
2 3 5 3 2 5 4 3 4 6 2 0 3 4 5 2 4 4 4 5 5 5 5 5 5 4 4 4 3 2 2 2 2 1 1 1 1 1 2 2 2 2 2 2
5 1 4 4 6 7 5 7 5 5 3 2 4 3 3 4 5 5 4 4 5 5 5 5 5 5 4 4 3 3 2 2 2 2 2 1 1 1 1 1 2 2 2 2
4 3 4 4 3 2 3 4 5 5 4 4 3 5 3 4 4 3 4 4 4 4 4 5 5 5 5 4 4 3 2 2 2 2 2 2 2 2 2 1 2 2 2 1
3 5 1 3 3 0 3 4 5 4 2 3 3 6 3 2 3 2 3 4 4 3 3 4 4 5 5 5 4 3 3 3 3 2 2 2 2 3 2 2 2 2 1 1
5 5 3 5 5 4 3 2 4 5 4 4 3 5 2 2 2 2 3 3 3 3 3 3 4 4 4 4 4 4 3 3 3 2 2 2 3 3 2 3 3 2 1 1
5 4 5 6 6 3 1 1 3 5 3 3 6 6 4 4 4 4 3 3 3 3 2 2 3 4 4 4 4 4 4 3 3 2 2 2 3 2 2 2 2 2 2 1
5 3 2 3 3 2 2 2 3 4 5 6 6 5 6 4 4 4 3 2 2 3 3 3 3 4 4 4 4 4 4 3 3 2 2 2 3 2 2 2 2 2 2 2
4 3 1 2 1 1 0 1 1 2 2 3 2 4 5 3 1 1 2 1 2 3 4 3 3 3 4 4 4 4 4 3 2 2 3 3 2 2 2 2 2 2 2 2
2 4 3 2 3 2 2 3 3 2 3 5 5 5 2 1 2 3 3 2 2 3 3 3 3 3 4 4 3 3 3 2 2 2 3 3 2 2 2 2 2 2 2 2
5 4 3 1 2 3 5 2 4 4 3 4 4 3 3 4 3 3 3 3 3 3 3 3 3 4 4 4 3 3 2 2 2 2 3 3 2 2 2 2 1 2 2 2
4 6 4 3 1 4 4 2 4 4 4 4 5 4 2 1 2 3 2 2 3 4 4 4 4 3 3 4 3 2 2 2 3 3 4 4 3 2 2 1 2 2 1 2
5 5 5 3 2 5 6 3 3 4 3 5 5 5 3 3 1 3 3 2 3 4 3 3 3 2 3 4 2 1 2 3 4 4 4 4 2 1 2 2 2 1 1 2
2 3 3 3 4 6 5 1 4 3 6 4 5 5 5 5 5 4 2 2 2 3 3 2 2 2 4 3 1 1 3 4 5 4 4 3 2 2 2 1 1 1 1 2
4 4 4 4 3 6 2 4 5 6 2 3 5 5 5 4 3 2 1 2 2 2 3 2 2 4 4 3 1 2 4 5 4 3 3 3 2 2 1 1 2 2 1 2
4 5 5 6 6 5 3 4 3 3 3 3 4 3 4 4 3 2 2 3 2 3 3 2 2 4 4 3 2 3 5 4 3 2 3 3 2 2 2 1 2 2 2 2
2 1 2 2 4 3 2 1 0 2 3 3 3 3 4 4 3 3 2 3 3 3 3 3 3 3 5 4 4 4 4 3 2 2 3 3 2 2 3 2 2 2 2 3
4 2 1 2 4 4 3 3 2 0 1 3 2 3 4 3 2 2 2 3 3 3 3 3 3 4 5 5 5 5 3 2 2 2 3 3 2 2 2 3 2 3 3 4
3 4 4 5 5 4 6 5 2 2 2 3 3 2 2 3 2 2 3 3 3 4 3 4 4 4 5 5 5 5 3 2 1 2 3 3 2 2 2 2 3 4 3 4
Wind_Direction
75 78 229 231 207 193 167 168 205 257 197 99 108 101 35 41 49 14 360 345 341 330 330 339 344 340 334 43 143 177 174 190 154 147 180 204 248 263 263 247 233 221 209 200
45 281 249 226 181 159 156 148 158 12 84 117 109 63 30 53 11 349 343 337 329 325 340 341 343 346 350 351 302 248 202 197 187 199 198 200 214 242 248 256 250 229 215 208
188 254 249 124 119 134 175 174 183 168 65 75 94 11 357 356 1 2 357 341 333 332 328 328 327 331 333 328 264 260 239 224 216 201 184 279 47 330 273 268 259 252 230 220
233 275 83 92 142 139 255 220 165 152 125 176 106 227 296 322 342 345 334 332 326 322 324 322 326 330 324 310 306 287 271 250 230 206 191 195 224 239 251 253 257 262 237 231
263 283 61 36 279 161 213 93 113 122 124 80 32 121 290 332 327 313 311 314 313 313 322 321 321 319 327 326 322 305 283 273 254 225 201 193 249 249 255 249 260 276 274 255
278 295 157 238 354 106 112 75 64 56 75 61 306 147 279 275 268 294 304 311 313 316 324 325 326 332 339 344 345 317 291 279 270 242 198 192 229 233 222 246 268 291 292 281
352 347 343 48 47 30 72 84 38 10 18 267 288 144 249 262 257 266 290 304 312 322 331 333 334 337 335 342 349 347 334 319 311 309 199 196 217 210 211 223 232 249 273 274
38 324 329 359 145 167 114 124 146 191 218 273 330 243 259 282 302 315 315 320 337 343 336 329 324 323 326 335 346 358 356 337 333 342 323 277 227 218 229 232 232 237 247 258
160 274 315 355 33 117 110 100 145 128 118 13 287 287 307 340 343 349 357 354 339 332 329 327 330 331 332 341 343 340 350 341 334 323 329 329 279 248 265 273 261 262 265 265
154 235 319 328 47 37 106 134 93 102 128 274 292 277 268 288 302 320 330 324 318 326 330 329 334 337 337 337 340 350 358 350 352 349 342 347 337 328 308 303 294 281 273 262
117 132 333 18 43 343 56 71 89 102 137 155 262 273 237 232 254 269 281 291 297 309 319 331 340 340 340 346 353 1 355 1 357 350 351 359 348 346 347 329 303 286 278 271
113 115 27 301 295 331 116 132 137 137 198 165 184 263 281 245 258 253 275 294 306 315 323 340 347 351 355 353 351 352 357 359 351 349 1 5 353 2 4 342 324 316 312 298
124 105 66 348 341 2 58 91 115 119 117 152 180 261 316 3 333 301 289 302 317 330 340 353 355 353 350 347 343 344 351 354 356 4 14 6 358 5 352 338 338 344 344 329
116 108 157 197 224 223 257 155 141 127 143 203 222 246 294 314 309 315 315 311 318 328 336 343 341 341 340 340 340 340 339 342 353 5 12 355 338 336 329 336 347 357 7 11
99 130 192 230 230 177 195 219 161 165 186 195 233 234 260 262 261 270 282 300 331 344 345 330 325 330 335 341 342 335 325 330 342 349 349 330 324 328 338 349 352 0 12 5
73 124 108 332 359 140 167 265 169 184 183 199 225 259 259 269 251 268 274 292 318 323 321 319 325 332 329 328 326 321 315 316 328 327 321 320 329 330 334 337 343 1 2 356
91 118 112 267 304 25 274 236 202 202 209 186 215 236 251 279 254 245 247 253 279 295 296 301 305 303 300 303 307 306 298 313 325 316 315 315 318 317 318 327 353 352 348 357
133 117 126 148 59 242 251 242 173 175 232 204 201 218 220 229 242 248 227 225 262 285 282 283 291 296 300 303 305 299 312 326 321 319 317 314 311 305 316 343 338 329 335 337
142 132 118 121 194 279 284 221 171 170 248 214 190 209 204 114 40 333 261 229 245 260 261 259 263 269 290 297 294 304 311 315 318 310 303 301 300 299 310 320 312 308 317 321
75 100 116 129 175 243 248 235 163 116 273 231 191 193 183 123 83 266 276 293 290 294 284 276 284 294 298 296 303 327 309 311 299 291 290 294 286 273 274 271 283 298 303 298
71 73 128 165 216 261 255 207 133 165 249 219 188 189 181 190 208 232 272 291 281 288 293 292 295 297 285 292 306 301 301 291 285 289 296 300 292 262 256 271 285 291 305 323
173 161 179 156 197 259 241 136 180 220 233 180 186 187 188 205 214 227 257 283 300 315 315 311 310 301 297 294 273 279 284 286 298 307 310 309 304 291 301 293 305 309 298 311
189 191 191 189 213 250 240 212 226 172 178 194 180 192 177 181 203 221 246 266 279 291 297 299 294 301 306 295 264 269 284 299 314 320 308 306 319 320 314 286 287 304 302 288
273 120 138 255 276 284 283 289 228 182 192 191 177 167 162 178 199 218 244 268 281 289 292 292 293 300 302 301 293 273 285 301 309 299 299 307 315 319 324 314 293 280 273 272
236 163 140 268 289 329 311 276 252 255 117 116 113 142 164 163 189 214 241 263 267 277 283 289 285 281 290 299 297 295 297 303 311 305 304 309 302 296 307 314 298 277 266 247
206 178 177 228 230 209 253 259 236 183 174 160 139 123 142 162 192 222 247 252 259 276 287 297 295 288 293 294 291 297 295 271 262 297 304 301 295 293 294 306 323 321 295 294
Height
1487 1493 1498 1494 1493 1493 1496 1500 1504 1502 1497 1501 1505 1506 1504 1503 1502 1501 1500 1499 1499 1498 1498 1496 1495 1494 1492 1492 1492 1491 1491 1491 1491 1491 1491 1491 1491 1492 1492 1492 1492 1492 1492 1492
1493 1495 1488 1486 1488 1491 1495 1501 1504 1502 1498 1502 1507 1508 1505 1504 1503 1501 1500 1499 1498 1497 1496 1495 1493 1492 1490 1490 1490 1490 1489 1489 1489 1489 1489 1489 1489 1489 1490 1490 1489 1489 1489 1489
1493 1489 1484 1486 1489 1492 1495 1498 1500 1502 1501 1502 1506 1512 1508 1505 1504 1502 1501 1500 1499 1497 1495 1494 1492 1491 1489 1488 1488 1488 1487 1487 1487 1487 1487 1487 1487 1487 1487 1486 1486 1486 1486 1486
1490 1485 1484 1486 1488 1490 1497 1490 1493 1498 1507 1515 1511 1524 1513 1508 1506 1503 1501 1499 1498 1496 1495 1493 1492 1490 1488 1487 1486 1485 1485 1485 1485 1484 1484 1484 1484 1484 1483 1483 1483 1483 1484 1483
1488 1484 1485 1487 1486 1486 1490 1488 1493 1499 1507 1516 1516 1522 1519 1510 1508 1504 1501 1499 1497 1496 1494 1493 1491 1490 1488 1486 1484 1483 1483 1482 1482 1482 1482 1481 1482 1482 1481 1481 1481 1481 1481 1481
1485 1482 1483 1484 1482 1484 1487 1493 1499 1507 1513 1525 1520 1523 1522 1513 1508 1504 1501 1499 1497 1495 1494 1492 1491 1489 1487 1485 1483 1481 1480 1479 1479 1479 1479 1478 1479 1479 1479 1479 1478 1478 1478 1478
1490 1486 1482 1482 1486 1487 1491 1505 1520 1522 1530 1529 1519 1521 1519 1506 1503 1502 1500 1498 1496 1495 1493 1491 1490 1488 1486 1484 1481 1479 1479 1478 1477 1477 1476 1476 1477 1477 1477 1476 1476 1475 1475 1475
1501 1501 1487 1484 1486 1491 1495 1502 1522 1530 1533 1530 1520 1522 1513 1503 1501 1500 1499 1498 1496 1494 1493 1491 1489 1487 1485 1483 1481 1479 1478 1477 1476 1476 1476 1475 1476 1475 1475 1475 1474 1474 1473 1473
1502 1501 1487 1484 1484 1487 1496 1505 1506 1521 1526 1532 1526 1517 1508 1502 1501 1500 1499 1497 1496 1494 1493 1491 1489 1487 1485 1483 1481 1480 1478 1477 1476 1476 1476 1475 1475 1474 1474 1473 1472 1472 1471 1471
1493 1500 1491 1487 1485 1489 1492 1501 1512 1521 1531 1534 1526 1521 1518 1507 1504 1501 1499 1498 1496 1495 1493 1491 1489 1488 1485 1483 1482 1480 1479 1478 1477 1476 1475 1475 1474 1473 1472 1471 1470 1470 1469 1469
1490 1501 1498 1493 1496 1498 1498 1503 1512 1522 1523 1532 1534 1526 1506 1504 1502 1501 1499 1498 1496 1495 1493 1491 1490 1488 1486 1484 1482 1480 1479 1479 1478 1476 1475 1474 1473 1473 1472 1470 1469 1469 1468 1467
1493 1503 1508 1500 1494 1492 1494 1500 1509 1518 1523 1527 1530 1525 1501 1501 1500 1499 1498 1497 1496 1495 1493 1492 1490 1489 1487 1485 1483 1481 1480 1479 1478 1477 1476 1474 1474 1472 1471 1470 1468 1467 1466 1465
1492 1504 1514 1511 1506 1498 1497 1500 1505 1513 1522 1528 1528 1519 1500 1499 1499 1498 1497 1496 1495 1494 1493 1492 1490 1489 1487 1486 1484 1482 1481 1480 1479 1478 1476 1475 1474 1472 1471 1469 1468 1466 1465 1464
1489 1502 1510 1514 1509 1501 1500 1499 1503 1509 1519 1521 1518 1511 1503 1500 1499 1498 1497 1496 1495 1494 1493 1492 1490 1489 1488 1487 1485 1483 1482 1481 1480 1478 1477 1475 1474 1473 1471 1470 1468 1466 1465 1464
1489 1500 1500 1500 1497 1497 1497 1498 1500 1503 1507 1512 1508 1506 1501 1499 1498 1497 1496 1495 1494 1493 1492 1491 1491 1490 1488 1487 1486 1484 1483 1481 1480 1479 1477 1476 1474 1473 1471 1469 1467 1466 1465 1463
1492 1498 1499 1500 1496 1496 1498 1497 1498 1500 1501 1504 1504 1503 1497 1496 1496 1496 1495 1494 1494 1492 1492 1491 1491 1490 1488 1487 1486 1484 1483 1482 1480 1479 1477 1476 1474 1473 1471 1469 1468 1466 1464 1463
1496 1500 1505 1508 1500 1498 1504 1498 1497 1498 1497 1499 1502 1500 1496 1496 1495 1494 1494 1494 1493 1493 1492 1491 1490 1489 1488 1487 1486 1484 1483 1482 1480 1479 1478 1476 1474 1472 1471 1469 1467 1466 1464 1463
1496 1502 1509 1510 1506 1511 1501 1491 1492 1495 1495 1494 1495 1495 1494 1494 1493 1493 1493 1493 1492 1492 1491 1490 1489 1489 1488 1486 1485 1484 1483 1481 1480 1479 1478 1476 1474 1472 1470 1469 1467 1465 1464 1462
1491 1499 1509 1514 1512 1507 1497 1491 1491 1495 1496 1492 1492 1493 1493 1493 1493 1493 1492 1492 1492 1492 1491 1490 1489 1488 1487 1486 1485 1484 1482 1481 1479 1478 1477 1475 1473 1471 1470 1468 1466 1464 1463 1461
1492 1495 1506 1512 1510 1510 1497 1487 1487 1492 1497 1489 1489 1490 1492 1493 1496 1494 1492 1491 1491 1491 1490 1489 1488 1487 1486 1485 1484 1483 1481 1480 1479 1478 1476 1475 1473 1471 1469 1467 1465 1464 1462 1460
1498 1501 1505 1509 1509 1501 1489 1486 1488 1499 1496 1487 1487 1488 1490 1491 1492 1491 1491 1490 1490 1490 1489 1489 1487 1486 1485 1485 1483 1482 1481 1480 1478 1477 1475 1474 1472 1470 1469 1467 1465 1463 1461 1459
1497 1502 1504 1508 1508 1503 1486 1486 1489 1489 1484 1484 1485 1486 1488 1488 1489 1489 1489 1489 1489 1489 1489 1488 1486 1485 1485 1484 1483 1481 1480 1479 1477 1476 1474 1472 1471 1469 1468 1466 1464 1462 1460 1458
1493 1494 1495 1497 1496 1487 1483 1483 1483 1483 1483 1483 1484 1485 1486 1487 1488 1488 1489 1489 1488 1488 1488 1487 1486 1485 1484 1483 1482 1480 1479 1477 1476 1474 1472 1471 1469 1468 1466 1464 1462 1461 1459 1457
1490 1489 1491 1491 1487 1484 1483 1483 1483 1483 1483 1483 1484 1485 1485 1486 1486 1487 1488 1488 1487 1487 1486 1485 1484 1483 1482 1481 1480 1478 1477 1476 1474 1472 1471 1469 1467 1466 1465 1463 1461 1459 1457 1455
1488 1488 1490 1490 1486 1483 1482 1482 1483 1483 1483 1483 1483 1484 1485 1486 1486 1487 1487 1487 1486 1486 1485 1484 1483 1482 1480 1479 1478 1477 1475 1474 1472 1471 1469 1467 1466 1464 1462 1461 1459 1457 1456 1454
1485 1487 1489 1488 1483 1484 1482 1481 1482 1482 1482 1483 1483 1484 1485 1485 1486 1486 1486 1486 1485 1485 1484 1483 1481 1480 1479 1478 1476 1475 1474 1472 1470 1469 1467 1466 1464 1462 1460 1459 1457 1455 1454 1452